{"data":{"norad_id":65399,"intl_designator":"2025-191W","name":"STARLINK-34836","alt_names":[],"object_type":"PAYLOAD","status":"ACTIVE","operator":null,"country":"US","launch_date":"2025-08-30","launch_site_code":"AFWTR","launch_vehicle":null,"mission":null,"orbit_class":"UNKNOWN","rcs_meters":null,"size_class":null,"mass_kg":null,"dimensions":null,"purposes":["comms"],"wikipedia_slug":null,"has_3d_model":false,"image_url":null,"decayed_at":null,"tle_current":{"epoch":"2026-05-25T03:28:00.651072Z","epoch_age_seconds":56527,"freshness":"FRESH","line1":"1 65399U 25191W   26145.14445198  .00002218  00000+0  15768-3 0  9996","line2":"2 65399  97.4495  16.5075 0001783  82.4722 277.6707 15.05655596 41772","mean_motion":15.05655596,"eccentricity":0.0001783,"inclination_deg":97.4495,"raan_deg":16.5075,"arg_perigee_deg":82.4722,"mean_anomaly_deg":277.6707,"bstar":0.00015768,"rev_number":4177,"period_min":95.639401455789,"perigee_km":548.25879231175,"apogee_km":550.72918552239,"semimajor_km":6927.6309889171,"source":"CELESTRAK","updated_at":"2026-05-25T13:38:20.796955Z"}}}